Location: Observatoire
(46.1952°N, 5.3391°E)
Time: 15:06:43
(UTC+01:00)

A-11 Canister half - Pass Details

Date: 22 February 2026
Orbit: 1513 x 1687 km, 47.2° (Epoch: 11 March)

Event Time Altitude Azimuth Distance (km) Brightness Sun altitude
Rises 19:52:46 0° 221° (SW) 4,923 12.2 -17.7°
Reaches altitude 10° 19:56:02 10° 216° (SW) 3,942 11.5 -18.2°
Maximum altitude 20:05:43 52° 144° (SE) 2,014 9.3 -19.9°
Enters shadow 20:10:54 29° 85° (E) 2,712 9.7 -20.8°
Drops below altitude 10° 20:15:18 10° 72° (ENE) 3,906 - -21.5°
Sets 20:18:30 0° 68° (ENE) 4,875 - -22.1°
